EW3721 Weather Reports


Display with metric or nautical units.
time (UTC)temp
F
wind
direction
speed
MPH
gust
MPH
rain 1hr
in
rain 24hr
in
rain mn
in
humidity
%
barometer
mb
20260503184604 55 188 5.0 16.0 0.00 0.00 0.00 40 1009.5
20260503184104 55 147 5.0 14.0 0.00 0.00 0.00 37 1009.6
20260503183605 55 200 6.0 16.0 0.00 0.00 0.00 37 1009.7
20260503183104 55 176 3.0 16.0 0.00 0.00 0.00 39 1009.7
20260503182605 55 239 3.0 13.0 0.00 0.00 0.00 36 1009.5
20260503182105 56 185 6.0 16.0 0.00 0.00 0.00 36 1009.5
20260503181605 56 206 3.0 8.0 0.00 0.00 0.00 40 1009.5
20260503181104 55 254 3.0 13.0 0.00 0.00 0.00 38 1009.3
20260503180605 54 144 4.0 9.0 0.00 0.00 0.00 42 1009.6
20260503180105 54 245 3.0 12.0 0.00 0.00 0.00 40 1009.5
20260503175104 54 136 7.0 14.0 0.00 0.00 0.00 40 1009.6
20260503174104 54 143 1.0 8.0 0.00 0.00 0.00 38 1009.8
20260503173605 54 224 4.0 9.0 0.00 0.00 0.00 39 1009.9
20260503173107 54 198 3.0 7.0 0.00 0.00 0.00 45 1009.9
20260503172605 53 149 3.0 8.0 0.00 0.00 0.00 46 1010.0
20260503172104 52 179 2.0 13.0 0.00 0.00 0.00 43 1010.1
20260503171604 52 148 5.0 14.0 0.00 0.00 0.00 45 1010.2
20260503171104 52 235 3.0 17.0 0.00 0.00 0.00 48 1010.2
20260503170604 52 220 6.0 13.0 0.00 0.00 0.00 44 1010.3
20260503170105 52 178 4.0 12.0 0.00 0.00 0.00 46 1010.3
20260503160104 54 224 6.0 12.0 0.00 0.00 0.00 47 1010.1
20260503150604 53 158 9.0 16.0 0.00 0.00 0.00 47 1009.8
20260503150105 53 207 5.0 17.0 0.00 0.00 0.00 48 1009.8
20260503140105 53 216 7.0 14.0 0.00 0.00 0.00 52 1009.7
20260503131104 50 131 5.0 12.0 0.00 0.00 0.00 57 1009.9
20260503130604 50 186 6.0 17.0 0.00 0.00 0.00 57 1009.9
20260503130104 50 157 3.0 14.0 0.00 0.00 0.00 57 1009.9
20260503120104 46 210 2.0 8.0 0.00 0.00 0.00 66 1010.0
20260503110603 42 133 3.0 13.0 0.00 0.02 0.00 70 1009.6
20260503110104 42 233 3.0 13.0 0.00 0.03 0.00 70 1009.6
20260503090107 42 0 2.0 3.0 0.00 0.03 0.00 65 1009.6
20260503081607 43 134 1.0 3.0 0.00 0.03 0.00 63 1009.9
20260503081106 44 146 2.0 8.0 0.00 0.03 0.00 62 1009.8
20260503080606 44 218 2.0 6.0 0.00 0.03 0.00 62 1009.8
20260503071107 46 95 4.0 12.0 0.00 0.03 0.00 56 1009.9
20260503070107 46 322 2.0 5.0 0.00 0.03 0.00 56 1010.2
20260503060107 47 149 3.0 9.0 0.00 0.03 0.00 57 1010.6
20260503055107 47 148 5.0 12.0 0.00 0.03 0.00 55 1010.7
20260503054607 47 337 5.0 17.0 0.00 0.03 0.00 57 1010.8
20260503053607 46 168 3.0 12.0 0.00 0.03 0.00 57 1010.9
20260503053107 46 243 3.0 10.0 0.00 0.03 0.00 58 1010.9
20260503052606 47 238 2.0 6.0 0.00 0.03 0.00 61 1010.9
20260503051607 47 142 0.0 2.0 0.00 0.03 0.00 60 1011.0
20260503051106 47 142 2.0 3.0 0.00 0.03 0.00 60 1010.9
20260503050606 47 0 2.0 3.0 0.00 0.03 0.00 59 1011.0
20260503050107 47 0 1.0 2.0 0.00 0.03 0.00 59 1011.1
20260503045606 47 0 0.0 2.0 0.00 0.03 0.00 58 1011.1
20260503045107 47 137 1.0 3.0 0.00 0.03 0.00 59 1011.1
20260503044607 48 144 2.0 5.0 0.00 0.03 0.00 58 1011.2
20260503044107 48 142 2.0 3.0 0.00 0.03 0.00 57 1011.2
20260503043607 48 144 1.0 3.0 0.00 0.03 0.00 57 1011.3
20260503043107 48 143 2.0 3.0 0.00 0.03 0.00 56 1011.3
20260503042607 48 218 2.0 5.0 0.00 0.03 0.00 57 1011.3
20260503041607 48 4 1.0 3.0 0.00 0.03 0.00 56 1011.3
20260503041107 48 0 1.0 3.0 0.00 0.03 0.00 56 1011.3
20260503040606 48 250 1.0 3.0 0.00 0.03 0.00 57 1011.2
20260503040106 49 248 1.0 3.0 0.00 0.03 0.00 56 1011.3
20260503035607 49 140 2.0 3.0 0.00 0.03 0.03 56 1011.2
20260503035106 49 248 1.0 3.0 0.00 0.03 0.03 55 1011.3
20260503033606 49 257 2.0 5.0 0.00 0.03 0.03 55 1011.3
20260503033106 49 0 1.0 3.0 0.00 0.03 0.03 54 1011.2
20260503032107 49 249 1.0 3.0 0.00 0.03 0.03 53 1011.2
20260503031606 49 252 1.0 3.0 0.00 0.03 0.03 54 1011.2
20260503031106 49 337 2.0 3.0 0.00 0.03 0.03 53 1011.1
20260503030606 49 143 2.0 6.0 0.00 0.03 0.03 54 1011.2
20260503030106 49 145 2.0 9.0 0.00 0.03 0.03 54 1011.2
20260503025607 49 249 2.0 3.0 0.00 0.03 0.03 54 1011.3
20260503024606 49 357 2.0 5.0 0.00 0.03 0.03 55 1011.2
20260503024107 49 161 3.0 7.0 0.00 0.03 0.03 54 1011.2
20260503023607 49 96 2.0 3.0 0.00 0.03 0.03 55 1011.3
20260503023106 49 130 1.0 3.0 0.00 0.03 0.03 56 1011.4
20260503022606 50 240 1.0 3.0 0.00 0.03 0.03 55 1011.4
20260503022107 50 237 2.0 5.0 0.00 0.03 0.03 56 1011.4
20260503021606 50 143 1.0 7.0 0.00 0.03 0.03 56 1011.5
20260503021106 50 240 1.0 7.0 0.00 0.03 0.03 55 1011.5
20260503020606 50 254 3.0 7.0 0.00 0.03 0.03 55 1011.4
20260503015606 50 131 3.0 12.0 0.00 0.03 0.03 57 1011.5
20260503015106 50 196 2.0 5.0 0.00 0.03 0.03 57 1011.4
20260503014606 50 136 2.0 5.0 0.00 0.03 0.03 59 1011.4
20260503013606 50 143 2.0 3.0 0.00 0.03 0.03 62 1011.3
20260503013106 50 78 1.0 3.0 0.00 0.03 0.03 64 1011.3
20260503012107 50 23 2.0 3.0 0.00 0.03 0.03 63 1011.2
20260503011106 51 3 1.0 3.0 0.00 0.03 0.03 67 1011.2
20260503010606 51 0 1.0 2.0 0.00 0.03 0.03 67 1011.3
20260503010106 52 1 1.0 5.0 0.00 0.03 0.03 66 1011.2
20260503005606 52 0 0.0 2.0 0.00 0.03 0.03 65 1011.1
20260503005107 52 358 1.0 2.0 0.00 0.03 0.03 62 1011.0
20260503004606 53 0 1.0 2.0 0.00 0.03 0.03 60 1010.9
20260503004107 53 0 1.0 2.0 0.00 0.03 0.03 57 1010.9
20260503003107 54 0 1.0 1.0 0.00 0.03 0.03 56 1010.8
20260503002106 54 0 1.0 2.0 0.00 0.03 0.03 55 1010.7
20260503001107 55 0 0.0 1.0 0.00 0.03 0.03 55 1010.6
20260503000606 55 359 1.0 3.0 0.00 0.03 0.03 54 1010.6
20260503000106 55 144 2.0 5.0 0.00 0.03 0.03 54 1010.5
20260502235606 56 142 1.0 3.0 0.00 0.03 0.03 54 1010.5
20260502234606 56 171 1.0 3.0 0.00 0.03 0.03 55 1010.4
20260502234106 56 140 2.0 3.0 0.00 0.03 0.03 52 1010.4
20260502233606 56 0 1.0 3.0 0.00 0.03 0.03 55 1010.3
20260502233106 57 33 3.0 3.0 0.00 0.03 0.03 54 1010.3
20260502231606 57 240 3.0 9.0 0.00 0.03 0.03 53 1010.3
20260502230606 58 224 3.0 6.0 0.00 0.03 0.03 53 1010.2
20260502230107 58 142 2.0 6.0 0.00 0.03 0.03 52 1010.1
20260502225606 58 229 3.0 5.0 0.00 0.03 0.03 51 1010.1
20260502224606 59 229 3.0 6.0 0.00 0.03 0.03 48 1010.1
20260502224107 59 246 3.0 7.0 0.00 0.03 0.03 46 1010.0
20260502223607 59 239 2.0 5.0 0.00 0.03 0.03 45 1009.9
20260502223106 59 142 2.0 8.0 0.00 0.03 0.03 48 1009.9
20260502222606 60 189 1.0 3.0 0.00 0.03 0.03 47 1009.8
20260502222107 60 141 2.0 3.0 0.00 0.03 0.03 45 1009.7
20260502221606 60 214 1.0 2.0 0.00 0.03 0.03 46 1009.8
20260502220606 59 224 1.0 3.0 0.00 0.03 0.03 47 1009.7
20260502215606 59 240 1.0 5.0 0.00 0.03 0.03 48 1009.8
20260502215106 59 161 2.0 3.0 0.00 0.03 0.03 49 1009.8
20260502214106 59 228 1.0 3.0 0.00 0.03 0.03 52 1009.8
20260502213606 59 227 1.0 1.0 0.00 0.03 0.03 56 1009.8
20260502213106 59 227 1.0 3.0 0.00 0.03 0.03 53 1009.8
20260502212606 59 225 2.0 3.0 0.00 0.03 0.03 49 1009.8
20260502212106 60 232 2.0 3.0 0.00 0.03 0.03 52 1009.8
20260502211606 60 250 1.0 3.0 0.00 0.03 0.03 51 1009.8
20260502211106 60 169 1.0 3.0 0.00 0.03 0.03 54 1009.8
20260502210106 60 225 1.0 3.0 0.00 0.03 0.03 55 1009.8
20260502205606 59 204 2.0 3.0 0.00 0.03 0.03 53 1009.8
20260502205106 59 168 1.0 3.0 0.00 0.03 0.03 55 1009.9
20260502204606 59 178 1.0 3.0 0.00 0.03 0.03 59 1009.9
20260502204106 58 204 2.0 6.0 0.00 0.03 0.03 55 1010.0
20260502203606 58 227 1.0 3.0 0.00 0.03 0.03 57 1010.0
20260502203106 58 221 3.0 5.0 0.00 0.03 0.03 58 1010.1
20260502202607 58 190 1.0 3.0 0.00 0.03 0.03 58 1010.2
20260502202106 58 236 2.0 3.0 0.00 0.03 0.03 61 1010.3
20260502201606 58 185 1.0 6.0 0.00 0.03 0.03 58 1010.4
20260502201106 58 247 1.0 6.0 0.00 0.03 0.03 60 1010.5
20260502200606 58 197 3.0 6.0 0.00 0.03 0.03 64 1010.4
20260502200106 57 139 2.0 3.0 0.00 0.03 0.03 63 1010.5
20260502195606 57 187 2.0 3.0 0.00 0.03 0.03 65 1010.5
20260502195106 57 164 4.0 8.0 0.00 0.03 0.03 62 1010.6
20260502194606 57 147 2.0 5.0 0.00 0.03 0.03 61 1010.7
20260502194106 57 170 2.0 5.0 0.00 0.03 0.03 63 1010.8
20260502193606 57 136 3.0 9.0 0.00 0.03 0.03 65 1010.8
20260502193106 57 197 4.0 12.0 0.00 0.03 0.03 62 1010.9
20260502192606 57 245 1.0 6.0 0.00 0.03 0.03 65 1011.0
20260502192106 57 225 2.0 6.0 0.00 0.03 0.03 65 1011.0
20260502191606 57 199 4.0 9.0 0.00 0.03 0.03 65 1011.1
20260502191106 57 154 2.0 3.0 0.00 0.03 0.03 66 1011.1
20260502190606 57 185 3.0 7.0 0.00 0.03 0.03 66 1011.2
20260502190106 57 121 3.0 10.0 0.00 0.03 0.03 66 1011.2
20260502185606 57 205 3.0 6.0 0.00 0.03 0.03 67 1011.3
20260502185105 57 238 2.0 8.0 0.00 0.03 0.03 67 1011.3